Погода в Игумновской

Россия / Архангельская область     62°13′28″N   44°53′32″E
темп.,
°C
ветер,
м/с
пор.,
м/с
влажн.,
%
обл.,
%
осадки,
мм/ч
давл.,
гПа
погр.,
м
6 мая, чт
чт600:00−3з27976 0.0 1005144
03:00−4з269811 0.0 1006129
06:000з36825 0.0 1007311
09:00+4з355975 0.0 10081289
12:00+8зюз34455 0.0 10081512
15:00+10ююз2343100 0.0 10081526
18:00+8ю4562100 0.0 10071030
21:00+6вюв41373100 0.1 1004488
7 мая, пт
пт700:00+7юв5138897 0.4 1002577
03:00+9ююв41294100 0.4 1001691
06:00+9ююз51190100 0.6 1001976
09:00+10юз5970100 0.9 10041506
12:00+10ююз4861100 0.1 10051684
15:00+11ююз4959100 0.4 10061739
18:00+10ююз4764100 0.1 1006833
21:00+5ююз29886 0.6 1008214
8 мая, сб
сб800:00+4ююз210925 0.0 1010278
03:00+3ю26965 0.0 1012142
06:00+5ю25865 0.0 1013220
09:00+11ю356236 0.0 10131006
12:00+13ю5753100 0.0 10121749
15:00+14ююв51053100 0.4 10122012
18:00+13ююв41055100 0.1 1011999
21:00+11юв41356100 0.1 1009760
9 мая, вс
вс900:00+10вюв51466100 0.0 1006618
03:00+9юв61481100 0.3 1004772
06:00+10юв61592100 2.6 10011160
09:00+10ююв61393100 5.1 1000986
12:00+11ююв61177100 2.7 10011190
15:00+12ююз7136595 3.4 10031828
18:00+6ююз61185100 0.4 10081264
21:00+3з5118894 0.6 10141105
10 мая, пн
пн1000:00+3зюз311885 0.0 1017487
03:00+2юз27943 0.0 1021213
06:00+4юз37815 0.0 1023317
09:00+10юз59485 0.0 10241322
12:00+13зюз6939100 0.0 10242651
15:00+14юз5844100 0.0 10242243
18:00+13юз51050100 0.0 10231759
21:00+10юз41169100 0.0 1023820